SCP
0 0 0 0 0 0 0 0 0 0 0 0 0 0 0 0 0 0 0 0 0 0 0 0 0 0 0 0 0 0 0 0 0 0 0 0 0 0 0 0 0 0 0
0 0 0 0 0 0 0 0 0 0 0 0 0 0 0 0 0 0 0 0 0 0 0 0 0 0 0 0 0 0 0 0 0 0 0 0 0 0 0 0 0 0 0
0 0 0 0 0 0 0 0 0 0 0 0 0 0 0 0 0 0 0 0 0 0 0 0 0 0 0 0 0 0 0 0 0 0 0 0 0 0 0 0 0 0 0
0 0 0 0 0 0 0 0 0 0 0 0 0 0 0 0 0 0 0 0 0 0 0 0 0 0 0 0 0 0 0 0 0 0 0 0 0 0 0 0 0 0 0
0 0 0 0 0 0 0 0 0 0 0 0 0 0 0 0 0 0 0 0 0 0 0 0 0 0 0 0 0 0 0 0 0 0 0 0 0 0 0 0 0 0 0
0 0 0 0 0 0 0 0 0 0 0 0 0 0 0 0 0 0 0 0 0 0 0 0 0 0 0 0 0 0 0 0 0 0 0 0 0 0 0 0 0 0 0
0 0 0 0 0 0 0 0 0 0 0 0 0 0 0 0 0 0 0 0 0 0 0 0 0 0 0 0 0 0 0 0 0 0 0 0 0 0 0 0 0 0 0
0 0 0 0 0 0 0 0 0 0 0 0 0 0 0 0 0 0 0 0 0 0 0 0 0 0 0 0 0 0 0 0 0 0 0 0 0 0 0 0 0 0 0
0 0 0 0 0 0 0 0 0 0 0 0 0 0 0 0 0 0 0 0 0 0 0 0 0 0 0 0 0 0 0 0 0 0 0 0 0 0 0 0 0 0 0
0 0 0 0 0 0 0 0 0 0 0 0 0 0 0 0 0 0 0 0 0 0 0 0 0 0 0 0 0 0 0 0 0 0 0 0 0 0 0 0 0 0 0
0 0 0 0 0 0 0 0 0 0 0 0 0 0 0 0 0 0 0 0 0 0 0 0 0 0 0 0 0 0 0 0 0 0 0 0 0 0 0 0 0 0 0
0 0 0 0 0 0 0 0 0 0 0 0 0 0 0 0 0 0 0 0 0 0 0 0 0 0 0 0 0 0 0 0 0 0 0 0 0 0 0 0 0 0 0
0 0 0 0 0 0 0 0 0 0 0 0 0 0 0 0 0 0 0 0 0 0 0 0 0 0 0 0 0 0 0 0 0 0 0 0 0 0 0 0 0 0 0
0 0 0 0 0 0 0 0 0 0 0 0 0 0 0 0 0 0 0 0 0 0 0 0 0 0 0 0 0 0 0 0 0 0 0 0 0 0 0 0 0 0 0
0 0 0 0 0 0 0 0 0 0 0 0 0 0 0 0 0 0 0 0 0 0 0 0 0 0 0 0 0 0 0 0 0 0 0 0 0 0 0 0 0 0 0
0 0 0 0 0 0 0 0 0 0 0 0 0 0 0 0 0 0 0 0 0 0 0 0 0 0 0 0 0 0 0 0 0 0 0 0 0 0 0 0 0 0 0
0 0 0 0 0 0 0 0 0 0 0 0 0 0 0 0 0 0 0 0 0 0 0 0 0 0 0 0 0 0 0 0 0 0 0 0 0 0 0 0 0 0 0
1 1 0 0 0 0 0 0 0 0 0 0 0 0 0 0 0 0 0 0 0 0 0 0 0 0 0 0 0 0 0 0 0 0 0 0 0 0 0 0 0 0 0
1 1 1 1 0 0 0 0 0 0 0 0 0 0 0 0 0 0 0 0 0 0 0 0 0 0 0 0 0 0 0 0 0 0 0 0 0 0 0 0 0 0 0
1 1 1 1 1 0 0 0 0 0 0 0 0 0 0 0 0 0 0 0 0 0 0 0 0 0 0 0 0 0 0 0 0 0 0 0 0 0 0 0 0 0 0
1 1 1 1 1 1 1 0 0 0 0 0 0 0 0 0 0 0 0 0 0 0 0 0 0 0 0 0 0 0 0 0 0 0 0 0 0 0 0 0 0 0 0
1 1 1 1 1 1 1 1 0 0 0 0 0 0 0 0 0 0 0 0 0 0 0 0 0 0 0 0 0 0 0 0 0 0 0 0 0 0 0 0 0 0 0
1 1 1 1 1 1 1 1 1 0 0 0 0 0 0 0 0 0 0 0 0 0 0 0 0 0 0 0 0 0 0 0 0 0 0 0 0 0 0 0 0 0 0
1 1 1 1 1 1 1 1 1 1 1 0 0 0 0 0 0 0 0 0 0 0 0 0 0 0 0 0 0 0 0 0 0 0 0 0 0 0 0 0 0 0 0
1 1 1 1 1 1 1 1 1 1 1 0 0 0 0 0 0 0 0 0 0 0 0 0 0 0 0 0 0 0 0 0 0 0 0 0 0 0 0 0 0 0 0
1 1 1 1 1 1 1 1 1 1 1 1 0 0 0 0 0 0 0 0 0 0 0 0 0 0 0 0 0 0 0 0 0 0 0 0 0 0 0 0 0 0 0
Wind_Speed
8 10 11 10 10 11 11 11 12 12 12 12 12 12 12 12 12 11 11 11 11 11 11 11 11 12 12 12 13 13 12 13 13 14 15 15 14 14 14 13 12 13 14
11 12 12 10 10 11 11 11 11 12 12 12 11 11 11 11 11 11 11 10 11 11 11 11 11 11 12 12 13 13 12 12 13 14 15 14 14 13 12 9 9 12 14
12 13 12 10 11 11 11 11 11 12 12 11 11 11 11 11 11 11 10 10 10 11 11 11 11 11 12 12 13 13 12 12 13 12 12 11 12 12 12 12 13 13 13
12 12 12 12 11 11 11 11 11 11 11 10 10 10 10 10 10 10 10 10 10 10 10 11 11 12 12 12 12 12 12 12 11 10 7 9 10 12 12 12 12 12 12
11 11 13 12 11 11 10 10 10 11 10 10 10 10 10 10 10 10 9 9 10 10 10 11 11 12 12 12 12 11 11 11 9 6 8 8 9 11 12 12 12 11 11
12 11 14 11 11 10 10 10 10 10 9 9 9 9 9 9 9 10 9 9 10 10 10 10 11 11 11 11 11 11 11 9 8 7 8 8 9 10 11 11 11 11 11
11 11 14 11 11 10 10 10 9 9 9 8 8 9 9 9 9 9 9 9 9 10 10 10 11 11 11 10 10 10 9 7 5 7 7 7 9 10 10 10 10 10 10
11 11 13 12 10 9 9 9 9 9 9 8 8 8 9 9 9 9 9 9 9 10 10 10 10 10 10 10 9 9 8 6 7 7 7 8 10 8 9 10 10 10 10
10 10 10 12 11 10 9 8 8 8 8 7 7 8 8 8 9 9 9 9 9 9 9 9 9 10 10 9 9 8 6 3 5 6 7 7 10 9 9 9 9 9 9
8 8 9 8 8 9 10 9 8 7 7 7 7 8 8 9 9 9 9 9 9 9 9 9 8 9 10 9 9 8 7 6 5 7 5 9 10 9 9 9 8 8 9
8 7 7 8 7 6 7 10 8 8 7 7 7 7 6 6 8 8 9 9 8 9 9 8 8 8 9 9 8 8 7 4 6 4 5 11 9 9 9 8 8 8 8
10 8 6 6 7 6 5 6 5 6 6 5 5 6 4 4 3 5 9 7 7 8 8 8 8 8 7 7 9 8 4 5 4 4 7 11 9 8 8 8 8 8 8
10 8 8 7 5 5 4 4 3 3 3 4 5 4 3 4 4 4 5 6 6 7 6 8 8 5 4 4 4 4 3 3 3 3 9 11 9 9 8 8 8 8 8
9 9 8 7 6 4 3 3 3 3 3 3 5 4 4 3 3 3 2 3 4 3 3 3 3 3 3 4 3 3 4 3 3 2 7 10 8 8 8 8 8 8 8
8 8 8 7 6 5 4 3 3 3 3 4 3 4 3 3 3 3 2 2 3 3 4 3 3 3 4 4 4 4 3 2 2 3 6 10 9 8 8 9 9 9 8
9 9 8 8 7 6 5 4 2 3 3 3 4 4 4 3 3 3 3 3 2 3 2 3 4 4 4 3 4 4 4 4 3 4 4 8 10 9 9 9 10 10 9
9 9 9 9 8 7 6 6 4 4 4 4 3 4 4 4 3 3 2 3 3 3 4 3 3 3 3 4 4 4 4 4 4 4 4 4 7 11 10 10 9 9 10
9 9 9 8 8 8 6 5 4 4 3 3 3 4 5 4 4 3 3 3 3 3 4 4 4 3 3 3 3 3 3 3 4 5 5 5 4 6 10 11 10 9 10
9 9 9 8 8 8 7 5 5 4 3 3 3 4 4 5 5 4 3 2 4 4 4 4 4 3 3 3 3 4 3 4 4 5 5 6 5 5 5 10 12 10 10
9 9 9 9 8 7 6 6 5 4 4 4 4 4 5 5 6 5 4 4 5 4 4 4 3 3 3 3 4 2 3 3 4 4 6 6 5 6 6 6 8 10 12
9 10 10 9 8 7 6 6 6 5 5 5 5 5 6 6 6 6 5 4 5 4 5 5 5 5 4 3 3 3 4 5 5 5 5 5 6 6 5 6 6 5 7
10 10 10 10 9 9 7 5 4 4 4 4 4 4 6 6 6 6 6 5 6 4 5 6 6 5 4 4 4 3 3 4 5 6 5 6 6 5 6 7 7 6 6
10 11 9 10 10 10 8 6 5 4 4 5 5 5 6 6 7 6 6 6 5 6 5 6 6 7 5 4 4 3 3 2 2 3 5 5 5 5 6 6 7 7 7
10 10 10 9 9 9 9 8 8 6 5 5 4 4 5 6 7 7 7 6 6 6 5 7 7 5 6 5 4 5 5 4 3 2 4 5 6 6 6 6 6 7 7
9 9 9 9 9 9 9 8 8 7 5 4 4 4 5 5 6 7 6 6 6 6 6 7 5 6 6 6 5 4 5 5 7 5 4 3 4 5 5 6 5 5 6
9 9 9 9 9 9 9 9 9 7 6 5 5 4 5 4 4 6 7 6 6 6 6 6 6 7 7 6 6 5 5 5 5 5 5 5 4 4 4 4 5 5 5
Wind_Direction
139 125 122 126 122 118 115 115 117 119 119 119 120 119 119 119 116 114 111 109 110 112 113 114 115 117 118 118 117 115 115 117 117 116 113 112 112 112 114 121 124 108 110
132 124 123 126 123 119 116 115 116 118 118 118 119 120 121 119 116 114 112 112 112 111 111 113 113 115 118 118 119 119 119 121 121 119 118 116 113 114 115 110 90 106 116
132 129 135 127 126 120 118 117 116 116 117 118 118 118 120 119 116 114 113 113 112 111 111 112 114 117 117 117 117 118 119 121 122 127 133 123 117 117 115 107 106 116 117
135 135 131 126 126 121 119 118 117 117 117 118 120 119 119 118 118 116 115 114 113 112 113 114 115 117 117 118 119 120 120 122 128 152 142 120 121 120 120 118 119 120 120
131 128 122 132 127 123 119 116 116 116 117 117 118 120 118 119 118 117 115 114 114 113 114 116 117 119 119 120 121 121 122 126 144 170 111 110 112 124 125 123 122 122 122
135 136 125 134 129 125 122 119 118 116 116 116 115 117 119 120 120 120 115 112 111 114 117 118 119 121 122 122 124 125 128 141 172 122 116 122 119 128 130 128 128 127 125
136 131 128 134 130 127 126 124 121 118 115 116 116 117 119 121 121 119 117 115 115 116 119 119 120 120 121 122 125 129 137 164 144 119 122 120 113 128 131 131 130 129 130
135 132 127 133 133 132 131 129 126 123 119 116 115 115 118 119 119 121 120 119 117 117 120 121 121 120 122 124 129 136 149 184 140 128 126 118 115 134 132 131 132 133 136
139 136 139 145 143 140 132 129 128 124 122 122 120 118 119 119 117 120 121 120 119 121 122 122 122 122 125 128 132 136 143 193 152 132 130 117 126 137 135 135 139 140 141
140 139 139 143 137 149 144 136 131 129 130 128 126 124 127 128 126 129 135 122 122 124 123 123 124 126 128 130 134 138 151 193 151 140 132 121 136 144 143 143 144 146 149
151 153 150 145 147 150 143 139 148 145 145 153 143 139 160 148 139 147 115 123 126 126 124 125 127 132 138 139 141 153 179 173 134 131 114 120 147 154 151 149 150 149 151
163 162 156 155 157 157 148 144 158 160 153 165 140 150 149 126 121 116 120 130 130 130 133 129 135 155 178 151 152 181 178 147 145 142 121 135 155 158 154 157 158 159 158
163 166 167 163 168 165 158 159 155 151 148 156 148 149 139 149 147 144 144 149 152 160 153 147 170 174 160 140 166 168 145 161 151 146 129 148 163 168 168 169 171 172 173
168 172 171 166 175 183 175 162 174 174 168 162 151 180 160 159 154 136 155 142 157 152 149 163 160 154 153 154 175 156 165 187 154 132 134 157 173 181 182 183 184 185 186
177 178 175 176 180 180 184 206 183 186 182 167 169 170 179 172 165 151 154 166 174 155 164 176 164 157 165 175 186 173 177 170 168 176 141 162 181 190 191 191 195 196 197
185 184 181 186 187 188 191 201 198 200 188 193 181 172 190 184 164 175 174 178 184 184 171 176 171 176 190 178 189 184 193 188 180 194 177 167 184 195 200 200 203 203 204
189 188 189 190 190 195 201 201 198 211 196 197 186 184 198 202 179 199 193 191 186 178 172 195 188 189 194 189 191 192 201 210 192 200 205 191 180 188 198 205 210 209 209
192 190 194 196 188 193 201 206 206 209 203 207 200 198 203 212 207 216 217 205 182 198 192 185 207 199 195 205 197 207 200 204 210 208 211 209 207 191 188 199 209 211 214
195 193 193 198 196 196 195 206 217 210 217 225 217 215 205 215 213 219 223 205 207 205 210 217 191 210 202 213 215 203 215 210 211 219 219 217 211 216 201 181 198 209 216
194 196 196 196 199 199 198 205 215 218 216 219 218 216 222 223 220 226 221 210 222 212 210 225 213 216 231 228 243 220 229 220 217 220 226 220 213 216 220 208 196 200 210
193 196 199 202 196 199 205 209 206 213 218 219 222 218 221 229 224 222 236 212 226 223 218 215 215 209 215 217 231 232 229 223 224 220 226 227 216 217 219 218 222 216 198
194 198 199 202 201 203 203 212 216 222 229 226 232 222 226 227 229 222 227 230 220 222 221 222 218 230 221 207 228 245 241 215 212 219 214 216 223 219 218 216 220 220 234
196 198 201 203 202 205 203 206 208 213 230 223 221 223 226 228 227 234 231 237 232 227 220 224 222 227 231 224 226 240 261 260 241 200 215 219 219 224 227 224 220 219 223
196 195 198 199 202 202 203 212 217 223 229 233 229 225 228 234 236 231 232 233 236 238 229 230 222 228 234 237 232 234 252 278 272 249 213 207 209 219 230 231 225 215 218
191 190 190 193 200 201 205 210 220 231 235 234 232 231 236 233 236 238 234 232 232 238 235 239 237 233 234 241 245 244 241 241 245 254 258 238 224 221 223 230 236 229 222
187 188 190 189 196 199 203 209 221 233 239 243 238 235 231 224 226 232 234 232 235 240 239 240 243 237 238 243 248 249 245 244 243 246 256 253 249 237 227 234 232 229 228